星链-30125 (STARLINK-30125 )

导读

STARLINK-30125是美国SpaceX公司星链(Starlink)星座的成员卫星,于2023年5月19日发射,属于低轨互联网通信卫星。它运行在约548公里高度轨道,质量约297公斤,依托星链星座组网,为全球提供高速低延迟互联网接入服务,支持手机直连等业务,是SpaceX构建全球卫星互联网的重要一环。

Basic Information
目录编号:
56701
目录名称:
STARLINK-30125
国际标识:
2023-067P
轨道中心:
EARTH
卫星名称:
星链-30125
卫星全名:
星链-30125 (STARLINK-30125 )
卫星状态:
在轨 (已飞行1211 天)
发射日期:
2023-05-19 UTC
国别 :
美国 (US)
星等 :
--
This satellite is enrolled in the Space Conjunction Data Service (SCDS) and the current flight risk assessment level is: High Risk
Orbit Information
数据来源 国际轨道数据 AOE轨道数据
星历时间 2026-09-11T13:10:37+0800
9小时前
查看轨道信息
2026-09-10T13:00:00+0800
1天前
查看轨道信息
半长轴 6861.187km 6861.198km
偏心率 0.0001712 0.0001627
轨道倾角 43.001° 43.002°
近地点辐角 277.076° 260.427°
升交点赤经 303.332° 309.024°
平近点角 82.990° 313.309°
近地点 481.875km 481.944km
远地点 484.225km 484.178km
周期 94.267分钟 94.267分钟
每日圈数 15.275797 15.275763
Detailed Information
固有亮度:
5
最大亮度:
0.3
卫星平台:
Starlink v2.0 mini
覆盖范围:
全球
运营商:
太空探索技术公司
运营商所在国:
美国
制造商(研发单位):
太空探索技术公司
制造商所在国:
美国
使用方式:
暂无
Satellite Introduction
星链(Starlink)计划是由太空探索技术公司(SpaceX)提出的一个巨型低轨卫星互联网星座项目,计划在2019年至2024年间在太空搭建由约1.2万颗卫星组成的“星链”网络,其中1584颗将部署在地球上空550千米处的近地轨道,并从2020年开始工作。该卫星仍在工作。
2D Orbit Map
3D Orbit Map
Orbit Altitude Analysis Chart
Orbit Inclination Analysis Chart
Orbit Comprehensive Analysis Chart
View Comprehensive Chart
Conjunction Data List
Event ID Objects TCA Miss Dist (km) Collision Risk Probability Collision Risk Index (CRI) Action
CDM_260912-234005-378105-670121
2026-09-12T
23:40:28+0000
0.579 km
远距离
1.178197E-4 高风险 0.76
CDM_260912-163605-378105-670121
2026-09-12T
16:36:41+0000
0.790 km
远距离
4.765031E-5 中风险 0.69
CDM_260912-040905-670106-391621
2026-09-12T
04:09:16+0000
1.092 km
极远距离
1.257695E-5 中风险 0.57
CDM_260912-204205-670106-228421
2026-09-12T
20:42:38+0000
1.032 km
极远距离
1.101686E-5 中风险 0.56
CDM_260913-003805-670106-228421
2026-09-13T
00:38:01+0000
1.109 km
极远距离
8.592951E-6 低风险 0.54
CDM_260912-111005-670106-409122
OBJECT E (64091)
2026-09-12T
11:10:13+0000
1.258 km
极远距离
7.91885E-6 低风险 0.53
CDM_260913-024805-670106-211821
2026-09-13T
02:48:50+0000
1.348 km
极远距离
7.13073E-6 低风险 0.52
CDM_260911-162305-670106-391621
2026-09-11T
16:23:07+0000
1.651 km
极远距离
3.204495E-6 低风险 0.45
CDM_260913-104005-670106-762521
2026-09-13T
10:40:15+0000
2.567 km
极远距离
1.290832E-6 低风险 0.37
CDM_260912-054305-670106-391621
2026-09-12T
05:43:25+0000
2.551 km
极远距离
1.154902E-6 低风险 0.36
Miss Distance Evolution Trend with All Objects
Collision Probability Evolution Trend with All Objects